Powrót do katalogu

SPOT 2

AktywnyNaukaPO
NORAD 20436·PAYLOAD·🇫🇷 France

Wystrzelony Jan 22, 1990 z Guiana Space Centre

Loading…

Następne Przeloty (najbliższe 24 godziny)

TLE

ŚwieżeSource: Space-Track

Epoka: Sep 14, 2026, 10:33 UTC

1 20436U 90005A   26257.43966173  .00000780  00000-0  11292-3 0  9993
2 20436  98.7245  61.2463 0128830 166.9975 193.4606 14.74005637928475

Śledź SPOT 2 w czasie rzeczywistym z AllMySat

Download on the App Store